Location: Unspecified
(0.0000°N, 0.0000°E)
Time: 22:15:21
(UTC+00:00)

DMSP F15 (USA 147) - Pass Details

Date: 09 October 2020
Orbit: 829 x 845 km, 99.0° (Epoch: 26 October)

Event Time Altitude Azimuth Distance (km) Brightness Sun altitude
Rises 02:46:56 0° 41° (NE) 3,358 8.6 -44.7°
Enters shadow 02:48:28 - 48° (NE) 2,849 8.3 -44.3°
Exits shadow 02:58:39 - 157° (SSE) 2,749 8.1 -41.8°
Sets 03:00:34 0° 166° (SSE) 3,380 8.6 -41.4°
